Theta_e
292 293 292 291 291 291 290 290 290 291 291 291 291 292 292 292 293 294 295 295 294 296 297 298 299 301 303 310 316 317 317 315 311 314 315 316 316 317 316 315 314 315 316
290 288 287 287 287 286 286 286 287 287 288 288 289 289 290 290 291 290 289 290 290 290 292 293 293 296 295 298 298 299 301 303 306 307 311 312 312 314 315 315 314 310 312
286 284 284 283 283 283 284 284 285 285 285 286 286 286 286 287 286 286 286 287 287 288 289 289 290 292 292 292 290 292 293 294 294 295 296 301 306 311 308 309 310 312 312
283 282 282 282 282 282 282 283 283 283 283 283 284 285 285 286 285 285 284 285 285 287 288 289 290 290 289 289 290 290 291 291 291 291 292 293 294 296 299 300 302 296 304
280 280 280 281 281 281 281 282 282 282 282 283 283 283 284 284 284 284 283 283 283 284 286 287 288 287 287 289 289 289 289 289 289 288 288 289 289 289 290 292 294 298 302
279 279 280 280 280 279 280 279 280 280 280 281 281 281 281 282 284 284 283 281 282 283 283 285 285 285 287 288 288 288 288 287 287 286 287 286 288 289 291 291 291 291 291
278 278 278 278 278 278 278 278 277 277 278 278 278 278 278 279 282 283 282 280 280 281 281 281 282 283 283 283 285 285 285 286 287 287 286 286 287 289 290 289 290 290 290
277 277 277 276 276 277 277 276 276 276 276 276 276 277 277 278 281 281 281 279 279 279 280 280 280 280 281 282 281 281 281 282 283 284 285 285 287 288 288 288 288 288 288
275 275 275 275 275 275 275 274 274 275 275 275 276 275 275 276 279 280 280 277 277 277 278 279 279 279 281 282 279 278 278 279 283 284 284 285 286 287 287 285 283 284 283
273 273 274 274 274 273 273 273 274 274 274 275 275 275 276 275 278 279 278 276 275 275 276 277 278 278 279 280 278 277 275 276 277 278 280 281 283 283 285 284 282 280 282
272 272 272 272 272 272 272 273 273 273 273 273 273 274 274 274 274 277 278 275 274 274 274 274 275 277 278 279 279 276 276 278 278 277 278 278 279 280 281 282 284 283 283
270 270 270 270 271 271 271 271 271 272 271 271 271 270 272 272 273 274 276 276 276 272 273 273 274 277 277 278 277 277 278 278 274 274 275 276 278 279 281 282 284 285 286
269 268 269 269 270 270 269 269 269 269 268 268 267 267 268 270 271 273 273 274 274 273 273 274 276 276 276 274 274 275 274 272 272 270 270 272 275 277 277 277 279 283 284
267 267 268 268 267 268 268 268 268 267 266 266 266 265 266 267 268 270 272 271 272 272 273 273 273 272 272 272 270 271 270 270 269 268 269 270 270 271 272 274 273 274 276
266 266 266 266 266 266 267 267 267 268 268 265 262 266 264 264 267 272 272 270 270 272 271 268 265 265 265 266 266 267 267 267 266 267 267 266 267 268 268 270 271 271 270
264 264 263 264 264 265 264 264 268 268 269 269 270 269 268 270 271 271 272 272 273 273 265 261 261 262 263 263 263 264 265 265 266 266 265 265 265 265 266 267 268 267 268
262 263 262 263 263 263 262 262 260 263 266 267 267 268 269 269 270 270 271 271 269 267 255 259 260 261 261 262 262 263 262 264 265 264 264 264 265 265 264 265 266 267 266
260 260 261 261 261 261 260 259 259 258 257 259 263 265 266 267 268 268 269 266 257 258 254 258 258 260 260 261 261 261 262 262 262 263 263 263 263 263 263 264 265 265 265
260 260 259 259 259 259 259 258 257 255 253 254 257 260 262 264 266 267 266 255 255 255 256 257 258 258 259 259 260 260 260 260 261 261 262 262 263 263 263 264 265 265 266
257 257 257 257 256 256 257 256 256 255 256 255 256 256 256 255 257 254 254 250 253 255 256 256 256 257 257 258 258 259 259 260 260 261 261 262 263 264 264 264 265 265 266
255 255 257 254 255 256 255 255 256 256 255 254 255 257 264 261 256 254 254 254 254 254 255 255 256 256 256 257 258 258 258 259 260 260 260 262 263 262 264 265 266 267 267
255 255 255 254 256 256 255 255 253 252 254 254 255 256 263 257 255 254 254 255 255 255 255 255 255 255 256 256 257 257 257 258 258 260 261 261 262 262 265 266 267 269 270
255 255 255 255 255 255 253 250 251 253 253 254 254 254 254 254 254 254 254 254 254 254 255 254 254 254 255 256 257 257 256 257 259 260 260 260 261 263 265 267 270 269 268
253 253 253 253 250 249 249 251 252 253 253 254 254 254 254 254 254 254 254 255 254 254 254 254 254 254 254 255 256 256 257 258 259 259 261 261 262 265 269 270 270 269 268
251 251 251 249 248 250 249 251 252 252 253 253 254 254 254 254 254 254 254 254 254 254 253 253 254 253 253 254 254 255 255 257 258 261 262 264 267 269 270 271 270 269 268
250 250 250 249 250 250 251 252 252 253 253 254 254 254 254 254 254 254 254 254 254 254 253 253 253 252 252 253 254 255 257 261 261 263 266 267 269 268 270 271 269 268 267
Wind_Speed
7 7 9 9 9 9 9 9 8 8 9 9 8 8 9 10 10 9 10 12 12 11 12 12 11 12 9 9 7 7 9 7 12 13 9 8 10 10 7 8 10 11 10
7 8 9 9 8 9 8 8 8 8 8 8 7 7 8 8 8 12 12 11 11 11 11 11 11 9 10 9 8 9 9 12 11 16 12 10 10 8 12 12 10 6 8
8 8 8 8 7 8 8 7 7 7 8 8 8 9 9 8 11 11 10 10 10 9 10 10 11 10 9 8 9 9 9 8 9 9 14 9 10 7 7 7 8 11 8
7 7 7 7 7 7 6 7 6 6 7 7 7 8 8 7 10 10 10 9 10 10 9 9 10 9 10 10 9 9 9 10 9 9 11 13 10 6 5 7 13 4 8
7 7 6 5 6 5 5 6 4 6 7 6 6 7 7 7 8 10 10 9 9 9 9 9 8 9 11 9 9 9 10 9 9 9 11 11 10 9 8 6 9 11 14
6 7 5 6 5 5 5 5 5 5 5 5 7 7 8 6 15 17 13 9 10 10 9 9 9 9 11 15 18 19 16 12 13 10 11 14 13 11 10 10 11 11 17
7 6 5 5 5 4 5 6 7 7 5 6 7 8 8 7 17 17 19 9 9 9 9 10 9 9 10 11 15 19 16 18 19 15 16 15 17 14 15 17 14 12 15
7 7 4 6 6 6 6 7 7 5 6 6 7 8 6 7 16 17 18 8 7 8 9 10 10 11 12 14 15 15 14 13 12 12 15 16 15 16 16 17 18 20 20
7 6 6 5 7 6 6 8 5 5 5 5 5 5 5 6 16 17 15 8 9 9 9 10 10 11 18 25 17 18 17 15 15 24 28 32 32 31 24 14 14 14 19
6 6 5 6 7 7 6 8 6 6 7 6 8 7 8 8 16 19 17 9 11 10 10 11 16 15 25 26 18 18 20 18 18 19 18 20 23 19 23 17 12 14 15
6 6 6 6 7 7 7 5 6 6 6 5 7 7 8 8 10 17 18 9 8 10 10 10 9 23 27 30 29 16 19 25 23 18 16 14 14 13 11 10 12 14 15
6 7 6 6 6 7 4 4 4 3 3 3 4 5 5 7 12 13 18 18 19 12 12 10 12 28 30 29 23 28 31 28 13 14 14 13 13 12 12 12 14 15 15
6 7 6 6 5 2 2 3 2 3 2 4 5 4 5 6 6 15 17 20 19 14 11 19 28 28 26 19 24 26 20 11 12 13 14 14 13 15 18 18 17 20 22
6 6 5 4 3 3 2 2 1 1 2 5 5 5 5 6 7 7 9 9 13 12 17 12 18 22 22 18 12 12 9 10 11 12 13 14 14 14 13 13 15 14 17
5 5 5 3 2 2 1 1 2 3 4 3 2 4 5 6 7 16 16 11 10 14 17 9 9 10 10 9 9 10 9 10 11 10 12 14 15 14 14 13 12 14 17
5 4 3 2 1 1 1 1 5 7 8 8 10 8 5 13 17 19 20 22 23 25 10 9 9 9 10 11 11 11 10 12 11 11 13 13 14 15 15 15 13 13 16
5 4 2 2 1 1 2 3 4 5 10 9 9 12 13 14 17 19 20 22 21 18 3 7 9 9 10 10 11 11 12 11 13 11 12 13 14 15 18 15 15 14 16
3 3 2 1 1 1 2 2 2 3 5 4 7 11 12 15 17 19 19 16 7 6 3 8 9 10 10 10 11 12 12 12 12 12 13 13 14 14 16 16 16 17 16
4 3 1 0 1 1 1 1 2 3 3 3 6 8 7 16 18 16 18 3 6 8 7 7 8 10 10 11 11 11 13 12 13 13 13 13 14 14 16 16 17 23 23
3 4 3 1 0 1 1 2 2 2 2 3 5 6 4 4 5 3 3 2 5 7 7 8 9 9 10 11 11 12 12 13 13 13 14 14 14 14 16 18 18 19 18
2 2 4 2 3 2 2 2 3 4 5 5 6 7 17 9 5 5 6 6 6 7 8 9 9 9 10 10 11 12 13 14 14 14 14 14 15 16 17 18 19 19 19
2 3 3 3 1 2 3 3 2 3 6 7 7 8 18 7 7 7 8 8 8 8 7 8 9 9 10 11 11 12 14 15 15 15 15 16 17 18 18 19 21 17 18
4 4 2 2 4 4 4 3 3 5 7 8 7 8 7 7 8 9 9 8 8 8 8 7 9 10 10 10 11 11 13 15 15 15 17 18 19 19 20 20 18 19 18
3 3 4 4 3 3 3 4 5 8 9 8 8 8 8 9 10 11 10 9 9 9 8 8 9 12 13 13 12 12 13 15 14 16 23 20 20 23 21 16 18 21 19
4 4 4 4 4 4 4 6 7 7 8 8 9 9 9 9 10 10 10 9 9 9 10 9 9 12 15 18 19 23 23 26 22 24 18 22 24 28 23 16 20 20 22
5 5 5 4 5 5 6 7 8 7 9 9 9 10 9 10 10 10 9 10 10 10 11 10 12 16 18 17 20 23 25 27 24 29 21 19 19 20 20 18 26 19 21
Wind_Direction
55 58 63 56 56 59 59 50 44 44 38 38 34 31 26 20 13 11 8 15 4 2 359 5 339 357 353 340 306 273 253 249 274 284 271 274 262 258 257 254 258 256 251
61 62 57 55 53 54 52 47 40 41 31 30 25 32 38 30 18 31 19 7 5 1 355 351 346 345 347 344 345 340 353 348 331 296 296 289 269 271 282 273 263 249 249
66 64 55 53 56 53 49 44 44 45 41 34 29 30 23 20 49 31 19 4 357 354 353 345 337 338 343 2 342 332 328 320 318 303 297 302 306 316 289 268 261 262 249
74 72 64 56 54 59 53 48 40 55 53 44 36 32 28 26 40 24 19 5 353 346 342 340 338 339 344 334 330 330 329 323 318 308 302 304 306 320 308 306 294 283 275
88 81 74 67 55 48 44 50 48 56 53 40 39 38 27 38 34 12 7 7 347 342 333 346 335 329 317 332 332 320 323 315 312 305 298 296 304 312 310 308 297 303 290
98 92 83 86 77 57 46 28 21 37 48 43 44 34 25 27 19 10 6 359 348 341 338 338 340 321 350 335 344 337 328 317 304 298 299 294 300 306 306 297 295 295 293
105 96 93 90 81 70 61 38 24 7 22 36 40 31 22 5 7 2 4 1 350 338 338 335 339 338 336 327 331 328 322 313 307 307 295 288 296 303 309 303 300 297 287
109 97 55 73 72 44 60 59 30 358 358 20 32 29 15 4 0 1 356 351 340 336 329 337 329 327 334 333 331 324 314 306 299 294 289 294 296 303 301 296 295 292 286
106 100 89 78 68 64 40 56 28 352 2 11 28 24 14 2 359 357 356 349 339 339 337 330 332 328 333 335 327 314 311 309 302 300 295 294 293 289 283 289 279 284 284
104 95 77 70 58 55 28 37 24 7 356 353 8 18 7 5 358 357 355 344 340 340 335 334 329 330 327 324 320 318 309 311 306 299 296 296 293 285 281 268 270 265 271
98 84 69 57 65 50 30 20 32 8 337 344 11 6 9 3 358 349 345 346 337 329 325 323 325 324 322 322 317 310 303 311 313 307 301 297 294 287 281 266 253 255 265
87 84 69 52 44 44 12 26 21 360 317 356 21 12 4 359 348 344 349 340 335 330 321 322 316 318 320 317 322 317 312 315 310 304 305 303 299 293 287 279 271 272 264
108 90 74 70 67 67 39 46 51 360 351 14 17 9 349 348 338 344 335 334 332 324 320 311 318 320 326 326 314 320 326 319 317 315 311 305 304 311 310 301 299 287 263
110 105 105 101 109 77 58 41 60 18 29 8 5 350 344 341 339 325 324 325 323 321 311 312 326 329 324 323 322 324 317 316 314 309 306 308 305 303 303 309 304 296 282
127 116 106 98 74 77 80 352 20 21 1 3 309 338 335 335 318 324 331 330 320 314 326 336 333 329 323 322 315 316 314 316 308 306 308 305 303 304 300 300 296 309 293
114 104 89 90 75 79 42 358 6 6 356 348 346 340 334 320 322 331 330 326 327 339 337 328 320 315 315 318 318 317 313 312 309 309 304 298 299 301 300 300 298 290 292
127 134 137 147 139 92 30 18 354 348 345 337 339 336 329 326 333 332 332 334 345 337 338 311 305 312 311 308 304 305 305 307 306 300 297 295 296 296 301 297 295 293 292
151 159 182 158 96 77 68 31 327 321 317 302 317 322 330 334 330 331 334 351 332 321 285 305 307 307 302 302 303 304 303 304 301 299 295 293 291 290 292 291 291 291 290
181 166 140 128 65 38 293 242 249 242 240 272 308 317 329 326 323 323 333 331 306 304 304 303 297 296 299 301 301 299 299 298 298 297 293 290 289 288 285 285 286 287 283
196 175 165 214 236 253 229 234 250 259 278 275 290 289 302 301 291 309 293 275 278 284 293 291 292 292 296 296 298 300 298 298 298 297 293 290 289 288 287 287 285 286 283
156 164 201 194 225 222 213 221 264 282 287 280 278 283 291 300 306 291 290 271 264 271 280 283 289 290 290 293 295 297 296 296 296 294 292 292 294 292 290 285 283 281 279
167 193 204 213 224 262 250 243 235 268 275 276 278 274 293 299 283 277 270 266 265 260 265 273 280 282 285 288 291 293 295 296 294 295 296 295 293 289 290 291 290 287 293
198 199 207 228 237 238 245 232 243 250 262 265 271 276 282 278 272 268 267 268 266 266 268 267 275 280 280 282 283 285 287 288 292 295 294 294 293 292 291 292 296 301 297
193 200 215 223 225 230 229 251 250 254 258 266 269 272 271 268 268 268 269 271 270 271 270 270 271 274 283 284 286 285 283 284 286 290 290 292 291 290 296 295 303 302 297
210 222 223 220 227 236 248 254 253 254 259 262 267 264 265 264 267 267 270 271 272 274 273 272 272 275 277 283 282 286 286 289 288 292 292 292 293 301 304 300 309 307 302
214 218 222 220 232 230 235 249 255 256 259 263 262 262 264 266 267 271 273 273 275 277 279 278 277 275 278 282 284 285 290 294 301 296 303 299 306 310 309 312 316 313 306